カタログに戻る

STARLINK-6095

運用中通信VLEO
NORAD 56101·PAYLOAD·🇺🇸 United States

打ち上げ Mar 29, 2023 から Cape Canaveral Space Force Station

Loading…

次のパス (今後24時間)

TLE

最新Source: CelesTrak SupGP

元期: Sep 14, 2026, 21:36 UTC

1 56101C 23046J   26257.90048611 -.00039903  00000+0 -14451-2 0  2578
2 56101  43.0004 172.6945 0001571 259.2835  55.1615 15.27601837    12

AllMySatでSTARLINK-6095をリアルタイム追跡

Download on the App Store